GW5691 Weather Reports


time (UTC)temp
C
wind
direction
speed
KPH
gust
KPH
rain 1hr
cm
rain 24hr
cm
rain mn
cm
humidity
%
barometer
mb
20260906100011 22 101 0.0 3.2 0.00 0.03 0.00 92 1013.2
20260906094520 22 86 1.6 3.2 0.00 0.03 0.00 92 1013.1
20260906093014 22 119 0.0 3.2 0.00 0.03 0.00 92 1013.2
20260906091511 22 331 0.0 3.2 0.00 0.03 0.00 92 1013.3
20260906090004 22 92 0.0 4.8 0.00 0.03 0.00 91 1013.1
20260906084504 23 143 1.6 4.8 0.00 0.03 0.00 91 1013.0
20260906083015 22 123 0.0 3.2 0.00 0.03 0.00 91 1013.2
20260906081511 23 285 0.0 3.2 0.00 0.03 0.00 91 1013.0
20260906080016 22 180 1.6 3.2 0.00 0.03 0.00 91 1013.2
20260906074514 22 192 0.0 3.2 0.00 0.03 0.00 91 1013.4
20260906073008 22 302 0.0 4.8 0.00 0.03 0.00 90 1013.3
20260906071504 22 302 0.0 3.2 0.00 0.03 0.00 90 1012.9
20260906070014 22 261 0.0 3.2 0.00 0.03 0.00 91 1012.6
20260906064514 22 200 0.0 3.2 0.00 0.03 0.00 91 1012.8
20260906063012 22 263 0.0 3.2 0.00 0.03 0.00 90 1012.9
20260906061513 23 194 0.0 3.2 0.00 0.03 0.00 87 1013.0
20260906060016 23 58 0.0 0.0 0.00 0.03 0.00 88 1013.2
20260906054514 23 58 0.0 1.6 0.00 0.03 0.00 88 1013.3
20260906053010 23 182 0.0 3.2 0.00 0.03 0.00 90 1013.5
20260906051516 23 161 0.0 1.6 0.00 0.03 0.00 83 1013.7
20260906050016 23 161 0.0 3.2 0.00 0.03 0.00 85 1013.7
20260906044517 23 161 0.0 3.2 0.00 0.03 0.00 86 1013.7
20260906043027 23 151 0.0 3.2 0.00 0.03 0.00 89 1013.8
20260906041518 24 271 0.0 3.2 0.00 0.03 0.00 85 1014.1
20260906040017 23 302 0.0 3.2 0.00 0.03 0.00 87 1014.0
20260906034512 22 230 0.0 1.6 0.00 0.03 0.03 89 1014.0
20260906033025 24 230 0.0 3.2 0.00 0.03 0.03 82 1013.9
20260906031518 24 230 0.0 0.0 0.00 0.03 0.03 83 1014.0
20260906030017 23 230 1.6 3.2 0.00 0.03 0.03 88 1013.9
20260906024522 23 166 0.0 3.2 0.00 0.03 0.03 87 1013.9
20260906023018 24 318 0.0 3.2 0.00 0.03 0.03 85 1013.4
20260906021514 24 48 3.2 4.8 0.00 0.03 0.03 85 1013.3
20260906020010 25 260 0.0 3.2 0.00 0.03 0.03 80 1013.1
20260906014529 25 195 0.0 3.2 0.00 0.03 0.03 84 1013.1
20260906013020 26 195 0.0 1.6 0.00 0.03 0.03 76 1013.3
20260906011534 25 195 0.0 3.2 0.00 0.03 0.03 81 1013.0
20260906010026 26 229 0.0 6.4 0.00 0.03 0.03 80 1012.9
20260906004533 26 102 1.6 3.2 0.00 0.03 0.03 80 1013.1
20260906003014 26 148 0.0 3.2 0.00 0.03 0.03 78 1013.0
20260906001528 26 200 0.0 3.2 0.00 0.03 0.03 80 1013.1
20260906000024 26 227 0.0 3.2 0.00 0.03 0.03 79 1013.1
20260905234522 30 317 0.0 3.2 0.00 0.03 0.03 66 1012.8
20260905233025 29 292 0.0 3.2 0.00 0.03 0.03 70 1012.8
20260905231525 28 293 0.0 3.2 0.00 0.03 0.03 73 1012.8
20260905230019 28 319 1.6 6.4 0.00 0.03 0.03 71 1012.7
20260905224525 28 237 3.2 9.7 0.00 0.03 0.03 72 1012.8
20260905223028 28 246 3.2 8.0 0.00 0.03 0.03 71 1012.6
20260905221527 28 340 1.6 8.0 0.00 0.03 0.03 72 1012.7
20260905220025 28 246 3.2 8.0 0.00 0.03 0.03 71 1012.8
20260905214530 28 238 3.2 8.0 0.00 0.03 0.03 73 1013.2
20260905213038 28 219 4.8 9.7 0.00 0.03 0.03 71 1013.4
20260905211523 29 238 1.6 6.4 0.00 0.03 0.03 69 1013.5
20260905210017 28 165 3.2 6.4 0.00 0.03 0.03 70 1013.0
20260905204515 28 167 3.2 8.0 0.00 0.03 0.03 71 1013.4
20260905203009 28 234 4.8 9.7 0.00 0.03 0.03 70 1013.6
20260905201527 31 257 3.2 9.7 0.00 0.03 0.03 67 1013.7
20260905200026 30 145 1.6 3.2 0.00 0.03 0.03 65 1013.8
20260905194528 28 253 1.6 3.2 0.00 0.03 0.03 72 1013.7
20260905193023 28 17 0.0 3.2 0.00 0.03 0.03 72 1013.9
20260905191518 28 283 0.0 3.2 0.00 0.03 0.03 72 1014.2
20260905190016 28 3 0.0 3.2 0.00 0.03 0.03 71 1014.7
20260905184512 30 319 0.0 1.6 0.03 0.03 0.03 68 1014.7
20260905183028 27 336 0.0 3.2 0.03 0.03 0.03 74 1014.5
20260905181534 29 133 0.0 3.2 0.03 0.03 0.03 68 1014.6
20260905180026 28 1 1.6 6.4 0.03 0.03 0.03 71 1014.7
20260905174524 31 13 6.4 24.1 0.00 0.00 0.00 62 1015.0
20260905173020 34 44 3.2 8.0 0.00 0.00 0.00 54 1015.0
20260905171524 35 119 3.2 9.7 0.00 0.00 0.00 54 1014.6
20260905170013 32 223 3.2 3.2 0.00 0.00 0.00 59 1014.7
20260905164531 32 340 1.6 6.4 0.00 0.00 0.00 60 1015.2
20260905163033 32 230 3.2 9.7 0.00 0.00 0.00 61 1015.2
20260905161530 32 17 0.0 4.8 0.00 0.00 0.00 64 1015.3
20260905160038 31 347 1.6 3.2 0.00 0.00 0.00 65 1015.3
20260905154523 31 227 1.6 8.0 0.00 0.00 0.00 66 1015.4
20260905153019 31 49 4.8 6.4 0.00 0.00 0.00 65 1015.4
20260905151514 30 248 3.2 6.4 0.00 0.00 0.00 68 1015.5
20260905150036 29 252 4.8 8.0 0.00 0.00 0.00 70 1015.7
20260905144535 28 213 1.6 6.4 0.00 0.00 0.00 73 1015.7
20260905143040 28 228 3.2 4.8 0.00 0.00 0.00 74 1015.9
20260905141530 27 248 1.6 4.8 0.00 0.00 0.00 76 1015.9
20260905140022 27 286 1.6 6.4 0.00 0.00 0.00 77 1016.0
20260905134523 27 324 1.6 3.2 0.00 0.00 0.00 79 1016.1
20260905133030 27 55 0.0 3.2 0.00 0.00 0.00 79 1016.1
20260905131544 26 304 1.6 3.2 0.00 0.00 0.00 83 1016.4
20260905130032 25 94 0.0 3.2 0.00 0.00 0.00 85 1016.3
20260905124508 25 94 0.0 0.0 0.00 0.00 0.00 89 1016.3
20260905123004 23 94 0.0 3.2 0.00 0.00 0.00 89 1016.2
20260905121504 23 94 0.0 0.0 0.00 0.00 0.00 87 1016.3
20260905120024 22 94 0.0 0.0 0.00 0.00 0.00 86 1016.2
20260905114535 22 94 0.0 3.2 0.00 0.00 0.00 90 1016.0
20260905113027 22 94 0.0 3.2 0.00 0.00 0.00 89 1015.7
20260905111511 22 94 0.0 3.2 0.00 0.00 0.00 90 1015.5
20260905110010 22 94 0.0 1.6 0.00 0.00 0.00 91 1015.4
20260905104519 22 94 0.0 3.2 0.00 0.00 0.00 88 1015.4
20260905103027 22 94 0.0 1.6 0.00 0.00 0.00 89 1015.1
20260905101538 22 94 0.0 0.0 0.00 0.00 0.00 87 1014.8